Howell, MI

3:18 PM EST on January 20, 2018 (GMT -0500)
Livingston County

Weather History for KOZW - October, 2012

Change the Weather History Date:

Tuesday, October 2, 2012

  Actual Average Record
Temperature  
Mean Temperature 61 °F -  
Max Temperature 70 °F 64 °F 80 °F (2005)
Min Temperature 52 °F 44 °F 28 °F (2003)
Degree Days  
Heating Degree Days 4    
Growing Degree Days 11 (Base 50)    
Moisture  
Dew Point 45 °F    
Average Humidity 59    
Maximum Humidity 81    
Minimum Humidity 36    
Precipitation  
Precipitation 0.00 in - - ()
Sea Level Pressure  
Sea Level Pressure 29.87 in    
Wind  
Wind Speed 3 mph (ENE)    
Max Wind Speed 10 mph    
Max Gust Speed -    
Visibility 10 miles    
Events Rain    
Averages and records for this station are not official NWS values.
T = Trace of Precipitation, MM = Missing Value Source: NWS Daily Summary

Daily Weather History Graph

Daily Weather History Graph

Search for Another Location

Airport or City:

Trip Planner

Search our weather history database for the weather conditions in past years. The results will help you decide how hot, cold, wet, or windy it might be!

Date:

Astronomy

Oct. 02, 2012 Rise Set
Actual Time 7:34 AM EDT 7:14 PM EDT
Civil Twilight 7:06 AM EDT 7:42 PM EDT
Nautical Twilight 6:33 AM EDT 8:15 PM EDT
Astronomical Twilight 6:00 AM EDT 8:48 PM EDT
Moon 8:22 PM EDT (10/2) 10:05 AM EDT (10/2)
Length of Visible Light 12h 36m
Length of Day
11h 39m
Waning Gibbous, 94% of the Moon is Illuminated
Oct 2
Waning Gibbous
Oct 8
Last Quarter
Oct 15
New
Oct 21
First Quarter
Oct 29
Full

Hourly Weather History & Observations

Time (EDT) Temp. Dew Point Humidity Pressure Visibility Wind Dir Wind Speed Gust Speed Precip Events Conditions
12:15 AM 53.4 °F 45.9 °F 76% 29.86 in 10.0 mi Calm Calm - N/A   Clear
12:34 AM 53.2 °F 46.0 °F 77% 29.86 in 10.0 mi Calm Calm - N/A   Scattered Clouds
12:55 AM 52.7 °F 45.9 °F 78% 29.85 in 10.0 mi Calm Calm - N/A   Scattered Clouds
1:15 AM 52.2 °F 45.5 °F 78% 29.84 in 10.0 mi Calm Calm - N/A   Scattered Clouds
1:35 AM 52.2 °F 45.5 °F 78% 29.83 in 10.0 mi NE 3.5 mph - N/A   Mostly Cloudy
1:55 AM 52.7 °F 45.1 °F 75% 29.83 in 10.0 mi NNE 3.5 mph - N/A   Overcast
2:14 AM 52.9 °F 45.3 °F 75% 29.84 in 10.0 mi North 3.5 mph - N/A   Overcast
3:15 AM 53.2 °F 45.7 °F 76% 29.84 in 10.0 mi Calm Calm - N/A   Overcast
3:35 AM 52.7 °F 45.5 °F 76% 29.83 in 10.0 mi Calm Calm - N/A   Overcast
3:54 AM 53.2 °F 45.5 °F 75% 29.83 in 10.0 mi Calm Calm - N/A   Overcast
4:15 AM 53.1 °F 45.5 °F 75% 29.83 in 10.0 mi Calm Calm - N/A   Overcast
4:35 AM 53.4 °F 45.3 °F 74% 29.83 in 10.0 mi Calm Calm - N/A   Overcast
4:54 AM 53.6 °F 45.0 °F 73% 29.84 in 10.0 mi Calm Calm - N/A   Overcast
5:15 AM 53.6 °F 45.1 °F 73% 29.84 in 10.0 mi Calm Calm - N/A   Overcast
5:35 AM 54.0 °F 45.1 °F 72% 29.85 in 10.0 mi North 3.5 mph - N/A   Overcast
5:54 AM 53.6 °F 45.5 °F 74% 29.85 in 10.0 mi Calm Calm - N/A   Overcast
6:35 AM 53.8 °F 45.1 °F 73% 29.85 in 10.0 mi North 3.5 mph - N/A   Overcast
6:54 AM 53.6 °F 45.7 °F 75% 29.86 in 10.0 mi NNW 3.5 mph - N/A Rain Light Rain
7:15 AM 53.6 °F 45.5 °F 74% 29.87 in 10.0 mi Calm Calm - N/A   Overcast
7:35 AM 53.2 °F 46.4 °F 78% 29.88 in 10.0 mi Calm Calm - N/A Rain Light Rain
7:55 AM 52.9 °F 46.6 °F 79% 29.88 in 10.0 mi Calm Calm - N/A   Overcast
8:15 AM 52.7 °F 46.9 °F 81% 29.87 in 10.0 mi North 4.6 mph - N/A   Overcast
8:34 AM 53.1 °F 47.3 °F 81% 29.87 in 10.0 mi Calm Calm - N/A Rain Light Rain
8:55 AM 53.6 °F 47.8 °F 81% 29.88 in 10.0 mi Calm Calm - N/A   Clear
9:15 AM 54.7 °F 48.2 °F 79% 29.88 in 10.0 mi Calm Calm - N/A   Clear
9:34 AM 55.8 °F 48.2 °F 76% 29.88 in 10.0 mi Calm Calm - N/A   Scattered Clouds
9:55 AM 57.2 °F 48.2 °F 72% 29.89 in 10.0 mi NE 3.5 mph - N/A   Mostly Cloudy
10:14 AM 58.3 °F 47.7 °F 68% 29.89 in 10.0 mi NE 3.5 mph - N/A   Overcast
10:35 AM 59.9 °F 47.1 °F 63% 29.89 in 10.0 mi ENE 5.8 mph - N/A   Mostly Cloudy
10:55 AM 61.3 °F 46.4 °F 58% 29.89 in 10.0 mi NE 5.8 mph - N/A   Overcast
11:14 AM 63.1 °F 45.5 °F 53% 29.89 in 10.0 mi ENE 5.8 mph - N/A   Overcast
11:35 AM 63.9 °F 43.9 °F 48% 29.89 in 10.0 mi East 8.1 mph - N/A   Overcast
11:55 AM 65.5 °F 41.9 °F 42% 29.88 in 10.0 mi NE 8.1 mph - N/A   Mostly Cloudy
12:14 PM 64.6 °F 40.8 °F 42% 29.88 in 10.0 mi ENE 10.4 mph - N/A   Mostly Cloudy
12:35 PM 64.8 °F 41.5 °F 43% 29.87 in 10.0 mi NE 8.1 mph - N/A   Overcast
12:55 PM 65.5 °F 40.8 °F 41% 29.87 in 10.0 mi NE 9.2 mph - N/A   Overcast
1:14 PM 67.3 °F 40.6 °F 38% 29.87 in 10.0 mi NE 8.1 mph - N/A   Mostly Cloudy
1:35 PM 69.1 °F 41.7 °F 37% 29.87 in 10.0 mi NE 6.9 mph - N/A   Scattered Clouds
1:54 PM 68.9 °F 41.0 °F 36% 29.86 in 10.0 mi ENE 10.4 mph - N/A   Clear
2:15 PM 69.4 °F 41.4 °F 36% 29.86 in 10.0 mi ENE 8.1 mph - N/A   Clear
2:35 PM 69.8 °F 41.4 °F 36% 29.86 in 10.0 mi ESE 6.9 mph - N/A   Scattered Clouds
2:54 PM 69.6 °F 41.7 °F 36% 29.85 in 10.0 mi NE 4.6 mph - N/A   Overcast
3:15 PM 70.2 °F 42.3 °F 36% 29.85 in 10.0 mi East 6.9 mph - N/A   Overcast
3:35 PM 69.1 °F 42.6 °F 38% 29.85 in 10.0 mi ENE 8.1 mph - N/A   Overcast
3:55 PM 69.1 °F 43.5 °F 40% 29.85 in 10.0 mi East 8.1 mph - N/A   Overcast
4:15 PM 69.1 °F 42.8 °F 39% 29.85 in 10.0 mi ENE 8.1 mph - N/A   Overcast
4:34 PM 68.9 °F 43.0 °F 39% 29.85 in 10.0 mi NE 8.1 mph - N/A   Overcast
4:55 PM 69.3 °F 43.3 °F 39% 29.86 in 10.0 mi ENE 8.1 mph - N/A   Overcast
5:15 PM 68.4 °F 42.8 °F 40% 29.86 in 10.0 mi East 5.8 mph - N/A   Overcast
5:34 PM 68.4 °F 43.0 °F 40% 29.87 in 10.0 mi East 8.1 mph - N/A   Overcast
6:15 PM 68.0 °F 44.1 °F 42% 29.87 in 10.0 mi East 5.8 mph - N/A   Overcast
6:34 PM 67.5 °F 44.1 °F 43% 29.87 in 10.0 mi ENE 8.1 mph - N/A   Overcast
6:55 PM 66.7 °F 45.0 °F 45% 29.87 in 10.0 mi ENE 4.6 mph - N/A   Overcast
7:15 PM 66.2 °F 45.1 °F 47% 29.88 in 10.0 mi ENE 3.5 mph - N/A   Overcast
7:34 PM 65.8 °F 45.5 °F 48% 29.88 in 10.0 mi ENE 3.5 mph - N/A   Overcast
8:15 PM 63.9 °F 44.6 °F 50% 29.89 in 10.0 mi East 3.5 mph - N/A   Scattered Clouds
8:34 PM 62.2 °F 44.6 °F 52% 29.90 in 10.0 mi Calm Calm - N/A   Scattered Clouds
8:55 PM 62.6 °F 44.2 °F 51% 29.91 in 10.0 mi Calm Calm - N/A   Mostly Cloudy
9:15 PM 62.6 °F 44.2 °F 51% 29.91 in 10.0 mi ENE 3.5 mph - N/A   Overcast
9:34 PM 62.4 °F 43.9 °F 51% 29.91 in 10.0 mi East 4.6 mph - N/A   Overcast
9:55 PM 61.7 °F 44.4 °F 53% 29.92 in 10.0 mi East 3.5 mph - N/A   Overcast
10:15 PM 61.7 °F 45.0 °F 54% 29.92 in 10.0 mi East 3.5 mph - N/A   Overcast
10:35 PM 61.0 °F 46.4 °F 59% 29.93 in 10.0 mi Calm Calm - N/A   Overcast
10:55 PM 60.6 °F 46.9 °F 61% 29.93 in 10.0 mi Calm Calm - N/A Rain Light Rain
11:14 PM 59.9 °F 47.8 °F 64% 29.93 in 10.0 mi East 3.5 mph - N/A   Drizzle
11:35 PM 59.0 °F 49.1 °F 70% 29.93 in 10.0 mi Calm Calm - N/A   Overcast
11:55 PM 59.2 °F 48.7 °F 68% 29.93 in 10.0 mi Calm Calm - N/A Rain Light Rain